Simultaneous Nadir Overpasses (SNOs) Predictions

Prediction of SNOs between AQUA and METOP-A Satellite Orbit:

Table of predicted SNOs for the next 14.0 days since TLE Epoch: 8/29/2015
Index Date (AQUA) Time (AQUA) Lat,Lon (AQUA) SZA (AQUA ) Date (METOP-A) Time (METOP-A) Lat,Lon (METOP-A) SZA (METOP-A ) Distance(km) Time Diff (sec)
1 08/29/2015 11:42:15 -73.94, 178.48 115.42 08/29/2015 11:41:42 -73.94, 178.55 115.42 2.15 33
2 08/29/2015 12:31:43 73.99, -13.98 64.64 08/29/2015 12:32:21 73.97, -14.03 64.63 2.17 38
3 09/01/2015 07:16:28 -73.96,-115.12 114.40 09/01/2015 07:16:03 -73.95,-115.02 114.41 3.16 25
4 09/01/2015 08:05:56 74.01, 52.40 65.67 09/01/2015 08:06:42 73.98, 52.39 65.64 3.60 46
5 09/04/2015 02:01:01 73.32, 145.06 65.94 09/04/2015 01:59:55 73.26, 142.46 65.97 83.48 66
6 09/04/2015 02:50:39 -73.95, -48.64 113.39 09/04/2015 02:50:23 -73.95, -48.61 113.39 1.05 16
7 09/04/2015 03:40:07 74.00, 118.87 66.68 09/04/2015 03:41:02 73.98, 118.80 66.66 3.18 55
8 09/06/2015 21:35:20 73.70,-149.29 67.37 09/06/2015 21:34:09 73.61,-150.35 67.32 34.94 71
9 09/06/2015 22:24:51 -73.95, 17.80 112.35 09/06/2015 22:24:44 -73.95, 17.79 112.35 0.27 7
10 09/06/2015 23:14:19 74.01,-174.70 67.73 09/06/2015 23:15:22 74.03,-174.68 67.74 2.22 63
11 09/09/2015 17:09:35 73.88, -83.23 68.61 09/09/2015 17:08:24 73.90, -83.26 68.64 2.14 71
12 09/09/2015 17:59:03 -73.97, 84.20 111.28 09/09/2015 17:59:05 -73.95, 84.18 111.31 3.14 2




NCC Satellite Simultaneous Nadir Overpasses (SNOs) Prediction Service
